Regional Weather Roundup
Issued by NWS

Home | Current Version | Previous Version | Graphics & Text | Print | Product List | Glossary On
Versions: 1 2 3 4 5 6 7 8 9 10 11 12 13 14 15 16 17 18 19 20 21 22 23 24 25 26 27 28 29 30 31 32 33 34 35 36 37 38 39 40 41 42 43 44 45 46 47 48 49 50
000
ASUS45 KTFX 012210
RWRMT
MONTANA REGIONAL WEATHER ROUNDUP
NATIONAL WEATHER SERVICE GREAT FALLS MT
400 PM MDT WED JUL 01 2015

NOTE: "FAIR" INDICATES FEW OR NO CLOUDS BELOW 12000 FEET WITH NO
SIGNIFICANT WEATHER AND/OR OBSTRUCTIONS TO VISIBILITY.

MTZ001>007-043-012300-
WEST OF THE DIVIDE

CITY           SKY/WX    TMP DP  RH WIND       PRES   REMARKS
KALISPELL      MOCLDY    92  43  18 S5        29.98F
MISSOULA       MOSUNNY   91  39  16 VRB5      30.00F
BUTTE          SUNNY     85  39  19 NW7       30.14F
MULLAN PASS    SUNNY     77  44  30 MISG      30.23F
DEER LODGE       N/A     84  39  20 NW12G20   30.13F
EUREKA           N/A     88  48  25 W7        30.00F
HAMILTON         N/A     90  43  19 N2        30.02F
PLAINS           N/A     93  46  19 SW5       29.97F
RONAN            N/A     89  48  24 SE1       30.05F
THOMPSON FALLS   N/A     96  44  16 W10       30.00F HX  92
$$

MTZ008-052>055-012300-
SOUTHWEST MONTANA

CITY           SKY/WX    TMP DP  RH WIND       PRES   REMARKS
BOZEMAN        SUNNY     89  42  19 NW14      30.06F
DILLON         SUNNY     91  46  21 N9        30.08F
W YELLOWSTONE  SUNNY     84  39  20 W9G18     30.21S
THREE FORKS      N/A     89  41  18 NW7       30.03F
TWIN BRIDGES     N/A     89  44  20 E5        30.06F
$$

MTZ009-010-012-014-046-048-049-054-012300-
EAST SLOPES AND CENTRAL MONTANA

CITY           SKY/WX    TMP DP  RH WIND       PRES   REMARKS
CUT BANK       PTSUNNY   76  53  44 N13G23    30.12F
GREAT FALLS    SUNNY     80  53  39 NE24G35   30.07R HAZE
HELENA         SUNNY     94  38  14 W13       30.01F
CONRAD           N/A     79  64  59 NW14      30.12R
$$

MTZ011-013-016-021-045-047-050-051-012300-
NORTH CENTRAL MONTANA

CITY           SKY/WX    TMP DP  RH WIND       PRES   REMARKS
HAVRE          PTSUNNY   82  57  42 NW10      30.03F
LEWISTOWN      SUNNY     86  48  26 VRB7G17   30.07S
CHINOOK          N/A     81  59  47 W14       30.00F
$$

MTZ017>020-022>027-061-062-012300-
NORTHEAST MONTANA

CITY           SKY/WX    TMP DP  RH WIND       PRES   REMARKS
GLASGOW        MOSUNNY   80  57  45 NW13      29.96F HAZE
JORDAN           N/A     83  57  41 N5        29.98F
SIDNEY         MOSUNNY   79  61  53 N6        29.97F
WOLF POINT     TSTM      71  63  75 NW13G20   29.97R
MALTA            N/A     78  54  43 W10       29.96F
PLENTYWOOD       N/A     77  55  47 NW5       29.97S
POPLAR           N/A     75  64  69 CALM      29.97S
SCOBEY           N/A     78  52  40 N5        29.97F
$$

MTZ028>42-056>058-012300-
SOUTHCENTRAL AND SOUTHEAST MONTANA

CITY           SKY/WX    TMP DP  RH WIND       PRES   REMARKS
BAKER          MOSUNNY   79  63  57 VRB5      30.01F
BILLINGS       MOSUNNY   91  47  21 VRB7      29.98F
LIVINGSTON     SUNNY     91  43  18 NW17G26   30.05F
MILES CITY     MOSUNNY   85  60  42 VRB7      29.95F
FORSYTH          N/A     86  54  32 NE3       29.95F
LAUREL           N/A     90  48  23 NW2       29.98F
ROUNDUP          N/A     81  54  39 N14       29.92F
$$

REGIONAL REPORTS...DAKOTAS

CITY           SKY/WX    TMP DP  RH WIND       PRES   REMARKS
WILLISTON      SUNNY     79  58  48 NW7       29.97F HAZE
MINOT          PTSUNNY   74  62  66 VRB5      29.95F HAZE
DICKINSON      SUNNY     73  61  65 S5        29.98F
BEACH          LGT RAIN  75  61  60 E3        30.01F
CROSBY         FAIR      73  68  83 NW6       29.97F FOG
BISMARCK       CLOUDY    77  64  64 E5        29.94F
GRAND FORKS    MOSUNNY   78  60  53 SW6       29.93S
FARGO          MOSUNNY   76  61  59 S9        29.95F
BUFFALO SD       N/A     80  62  54 VRB3      29.94F
RAPID CITY     SUNNY     83  65  54 N20G28    29.97F
$$

REGIONAL REPORTS...WYOMING/IDAHO/WASHINGTON

CITY           SKY/WX    TMP DP  RH WIND       PRES   REMARKS
GILLETTE       PTSUNNY   83  54  36 NE6       30.05F
SHERIDAN       SUNNY     87  52  29 MISG      30.02F
BUFFALO WY     MOSUNNY   85  52  32 MISG      30.09F
CODY           MOSUNNY   84  52  32 N13       30.07F
YELLOWSTONE LA   N/A     79  28  15 NW8G25    30.31F
IDAHO FALLS    MOSUNNY   90  48  23 S3        30.07F
SALMON         SUNNY     93  45  18 NW3       29.97F
BOISE          SUNNY    101  41  12 NW14      29.95F HX  96
SPOKANE        MOSUNNY   93  43  17 SW9       29.99F
$$

REGIONAL REPORTS...ALBERTA

CITY           SKY/WX    TMP DP  RH WIND       PRES   REMARKS
EDMONTON       MOSUNNY   75  54  46 NW13      30.04F
CALGARY        PTSUNNY   72  52  49 N15G24    30.15S
LETHBRIDGE     MOSUNNY   77  52  41 NW17G29   30.11F
MEDICINE HAT   PTSUNNY   77  57  50 NW13G22   30.03F
WATERTON GATE    N/A     68  55  64 E2          N/A
CARDSTON         N/A     70  57  64 N8          N/A
MILK RIVER       N/A     77  54  44 N15G23      N/A
ONEFOUR          N/A     77  52  41 NW22G28     N/A
$$

REGIONAL REPORTS...SASKATCHEWAN

CITY           SKY/WX    TMP DP  RH WIND       PRES   REMARKS
SWIFT CURRENT  SUNNY     73  55  53 N6        29.99F THUNDER
REGINA         PTSUNNY   73  63  68 NW3       29.96F SMOKE
SASKATOON      PTSUNNY   75  61  60 W8        29.97S
CYPRESS HILLS    N/A     66  54  63 N10G18      N/A
VAL MARIE        N/A     75  57  53 NW9         N/A
ROCKGLEN         N/A     73  54  49 NW9         N/A
ASSINIBOIA       N/A    N/A N/A N/A NW12        N/A
$$



USA.gov is the U.S. government's official web portal to all federal, state and local government web resources and services.